Voltar ao catálogo

SL-16 DEB

AtivoLEO
NORAD 39718·DEBRIS·🇷🇺 Russia

Lançado Dec 25, 1992 de Baikonur Cosmodrome

Loading…

Próximas Passagens (próximas 24 horas)

TLE

AtualizadoSource: Space-Track

Época: Sep 14, 2026, 02:56 UTC

1 39718U 92093KJ  26257.12287192  .00003858  00000-0  81203-3 0  9996
2 39718  71.1844  31.4336 0026901 352.0204   8.0511 14.59912495652354

Acompanhe SL-16 DEB em tempo real com AllMySat

Download on the App Store